Weather History for Quakertown, PA

Change the Weather History Date:

Monday, October 7, 2013

  Actual Average (KABE) Record (KABE)
Temperature  
Mean Temperature 64 °F 55 °F  
Max Temperature 73 °F 67 °F 87 °F (1946)
Min Temperature 55 °F 44 °F 32 °F (1958)
Degree Days  
Heating Degree Days 1 10  
Month to date heating degree days 63  
Since 1 July heating degree days 178  
Cooling Degree Days 0 0  
Month to date cooling degree days 3  
Year to date cooling degree days 753  
Growing Degree Days 14 (Base 50)    
Moisture  
Dew Point 61 °F    
Average Humidity 90    
Maximum Humidity 100    
Minimum Humidity 67    
Precipitation  
Precipitation 0.38 in 0.14 in 2.34 in (1951)
Month to date precipitation 0.99  
Year to date precipitation 35.38  
Snow  
Snow 0.00 in 0.00 in T in (1951)
Month to date snowfall 0.0  
Since 1 July snowfall 0.0  
Since 1 September snowfall 0.0  
Snow Depth -    
Sea Level Pressure  
Sea Level Pressure 29.91 in    
Wind  
Wind Speed 6 mph (South)    
Max Wind Speed 18 mph    
Max Gust Speed 29 mph    
Visibility 9 miles    
Events      
T = Trace of Precipitation, MM = Missing Value Source: NWS Daily Summary

Daily Weather History Graph

Daily Weather History Graph

Search for Another Location

Airport:

Trip Planner

Search our weather history database for the weather conditions in past years. The results will help you decide how hot, cold, wet, or windy it might be!

Date:

Astronomy

Oct. 07, 2013 Rise Set
Actual Time 7:04 AM EDT 6:33 PM EDT
Civil Twilight 6:37 AM EDT 7:00 PM EDT
Nautical Twilight 6:05 AM EDT 7:32 PM EDT
Astronomical Twilight 5:33 AM EDT 8:03 PM EDT
Moon 9:52 AM EDT (10/7) 8:15 PM EDT (10/7)
Length of Visible Light 12h 23m
Length of Day
11h 29m
Waxing Crescent, 8% of the Moon is Illuminated
Oct 7
Waxing Crescent
Oct 11
First Quarter
Oct 18
Full
Oct 26
Last Quarter
Nov 3
New

Hourly Weather History & Observations

Time (EDT) Temp. Dew Point Humidity Pressure Visibility Wind Dir Wind Speed Gust Speed Precip Events Conditions
12:15 AM 66.2 °F 64.4 °F 94% 30.00 in 8.0 mi SE 4.6 mph - N/A   Clear
12:35 AM 66.2 °F 64.4 °F 94% 29.99 in 8.0 mi SE 4.6 mph - N/A   Clear
12:55 AM 66.2 °F 64.4 °F 94% 29.99 in 10.0 mi SE 5.8 mph - N/A   Clear
1:15 AM 66.2 °F 64.4 °F 94% 29.99 in 8.0 mi SE 4.6 mph - N/A   Clear
1:35 AM 66.2 °F 64.4 °F 94% 29.99 in 9.0 mi SE 4.6 mph - N/A   Clear
1:55 AM 66.2 °F 64.4 °F 94% 29.98 in 10.0 mi SSE 4.6 mph - N/A   Partly Cloudy
2:15 AM 66.2 °F 64.4 °F 94% 29.98 in 10.0 mi SE 5.8 mph - N/A   Partly Cloudy
2:35 AM 66.2 °F 64.4 °F 94% 29.97 in 10.0 mi SSE 5.8 mph - N/A   Clear
2:55 AM 66.2 °F 66.2 °F 100% 29.97 in 9.0 mi SSE 5.8 mph - N/A   Scattered Clouds
3:15 AM 68.0 °F 66.2 °F 94% 29.96 in 10.0 mi SE 6.9 mph - N/A   Mostly Cloudy
3:35 AM 68.0 °F 66.2 °F 94% 29.95 in 10.0 mi SSE 5.8 mph - N/A   Mostly Cloudy
3:55 AM 68.0 °F 66.2 °F 94% 29.94 in 10.0 mi SSE 6.9 mph - N/A   Overcast
4:15 AM 68.0 °F 66.2 °F 94% 29.94 in 10.0 mi SSE 5.8 mph - N/A   Overcast
4:35 AM 68.0 °F 66.2 °F 94% 29.94 in 10.0 mi SSE 6.9 mph - N/A   Overcast
4:55 AM 68.0 °F 66.2 °F 94% 29.94 in 10.0 mi SSE 6.9 mph - N/A   Overcast
5:15 AM 68.0 °F 66.2 °F 94% 29.93 in 10.0 mi SSE 6.9 mph - N/A   Overcast
5:35 AM 68.0 °F 66.2 °F 94% 29.92 in 10.0 mi SSE 8.1 mph - N/A   Overcast
5:55 AM 68.0 °F 66.2 °F 94% 29.92 in 10.0 mi SSE 8.1 mph - N/A   Overcast
6:15 AM 68.0 °F 66.2 °F 94% 29.92 in 10.0 mi SSE 6.9 mph - N/A   Overcast
6:35 AM 68.0 °F 66.2 °F 94% 29.92 in 10.0 mi SSE 9.2 mph - N/A   Overcast
6:55 AM 68.0 °F 66.2 °F 94% 29.91 in 10.0 mi SSE 6.9 mph - N/A   Overcast
7:15 AM 68.0 °F 66.2 °F 94% 29.90 in 10.0 mi SSE 8.1 mph - N/A   Overcast
7:35 AM 68.0 °F 66.2 °F 94% 29.90 in 10.0 mi SE 4.6 mph - N/A   Overcast
7:55 AM 68.0 °F 66.2 °F 94% 29.89 in 10.0 mi SE 5.8 mph - N/A   Overcast
8:15 AM 68.0 °F 66.2 °F 94% 29.89 in 10.0 mi SE 9.2 mph - N/A   Overcast
8:35 AM 68.0 °F 66.2 °F 94% 29.88 in 10.0 mi SE 10.4 mph - N/A   Overcast
8:55 AM 68.0 °F 66.2 °F 94% 29.88 in 5.0 mi SSE 6.9 mph 16.1 mph N/A   Overcast
9:15 AM 68.0 °F 66.2 °F 94% 29.87 in 9.0 mi SSE 10.4 mph - N/A   Overcast
9:35 AM 68.0 °F 68.0 °F 100% 29.87 in 7.0 mi SSE 9.2 mph - N/A   Overcast
9:55 AM 68.0 °F 68.0 °F 100% 29.86 in 7.0 mi SSE 9.2 mph - N/A   Overcast
10:15 AM 68.0 °F 68.0 °F 100% 29.86 in 4.0 mi SSE 8.1 mph 17.3 mph N/A   Overcast
10:35 AM 68.0 °F 68.0 °F 100% 29.85 in 8.0 mi SSE 8.1 mph 17.3 mph N/A   Overcast
10:55 AM 69.8 °F 68.0 °F 94% 29.84 in 10.0 mi SSE 10.4 mph - N/A   Overcast
11:15 AM 71.6 °F 68.0 °F 88% 29.82 in 10.0 mi SSE 12.7 mph 24.2 mph N/A   Overcast
11:35 AM 71.6 °F 68.0 °F 88% 29.81 in 8.0 mi SSE 12.7 mph 23.0 mph N/A   Overcast
11:55 AM 73.4 °F 68.0 °F 83% 29.80 in 10.0 mi SSE 12.7 mph 21.9 mph N/A   Overcast
12:15 PM 73.4 °F 68.0 °F 83% 29.79 in 10.0 mi South 16.1 mph 21.9 mph N/A   Overcast
12:35 PM 73.4 °F 68.0 °F 83% 29.78 in 10.0 mi South 17.3 mph 28.8 mph N/A   Overcast
12:55 PM 73.4 °F 69.8 °F 88% 29.77 in 7.0 mi SSE 16.1 mph 24.2 mph N/A   Overcast
1:15 PM 73.4 °F 69.8 °F 88% 29.78 in 7.0 mi South 18.4 mph 27.6 mph N/A   Overcast
1:35 PM 73.4 °F 69.8 °F 88% 29.78 in 8.0 mi South 13.8 mph 23.0 mph N/A   Overcast
1:55 PM 66.2 °F 64.4 °F 94% 29.79 in 1.0 mi South 9.2 mph 26.5 mph 0.22 in   Overcast
2:15 PM 66.2 °F 64.4 °F 94% 29.81 in 8.0 mi South 6.9 mph - N/A   Mostly Cloudy
2:35 PM 66.2 °F 64.4 °F 94% 29.82 in 3.0 mi South 8.1 mph - 0.02 in   Overcast
2:55 PM 66.2 °F 64.4 °F 94% 29.82 in 3.0 mi South 6.9 mph - 0.03 in   Overcast
3:15 PM 66.2 °F 64.4 °F 94% 29.83 in 4.0 mi SSW 6.9 mph - 0.01 in   Overcast
3:35 PM 64.4 °F 64.4 °F 100% 29.85 in 3.0 mi SW 8.1 mph - 0.04 in   Overcast
3:55 PM 59.0 °F 57.2 °F 94% 29.85 in 3.0 mi West 5.8 mph 18.4 mph 0.12 in   Mostly Cloudy
4:15 PM 59.0 °F 57.2 °F 94% 29.90 in 6.0 mi SW 5.8 mph 16.1 mph 0.01 in   Overcast
4:35 PM 57.2 °F 55.4 °F 94% 29.90 in 8.0 mi WSW 5.8 mph - 0.01 in   Overcast
4:55 PM 57.2 °F 55.4 °F 94% 29.91 in 10.0 mi WSW 4.6 mph - 0.01 in   Overcast
5:15 PM 57.2 °F 55.4 °F 94% 29.90 in 10.0 mi Calm Calm - N/A   Overcast
5:35 PM 57.2 °F 55.4 °F 94% 29.92 in 10.0 mi WSW 3.5 mph - N/A   Overcast
5:55 PM 57.2 °F 55.4 °F 94% 29.92 in 10.0 mi Calm Calm - N/A   Overcast
6:15 PM 59.0 °F 55.4 °F 88% 29.93 in 10.0 mi Calm Calm - N/A   Overcast
6:35 PM 59.0 °F 55.4 °F 88% 29.93 in 10.0 mi Calm Calm - N/A   Overcast
6:55 PM 59.0 °F 53.6 °F 82% 29.94 in 10.0 mi Calm Calm - N/A   Mostly Cloudy
7:15 PM 59.0 °F 53.6 °F 82% 29.95 in 10.0 mi Calm Calm - N/A   Overcast
7:35 PM 57.2 °F 55.4 °F 94% 29.95 in 10.0 mi Calm Calm - N/A   Mostly Cloudy
7:55 PM 57.2 °F 55.4 °F 94% 29.95 in 10.0 mi Calm Calm - N/A   Partly Cloudy
8:15 PM 57.2 °F 55.4 °F 94% 29.97 in 10.0 mi Calm Calm - N/A   Clear
8:35 PM 57.2 °F 53.6 °F 88% 29.97 in 10.0 mi Calm Calm - N/A   Clear
8:55 PM 57.2 °F 53.6 °F 88% 29.98 in 10.0 mi WSW 3.5 mph - N/A   Clear
9:15 PM 57.2 °F 50.0 °F 77% 29.98 in 10.0 mi WSW 5.8 mph - N/A   Clear
9:35 PM 57.2 °F 48.2 °F 72% 29.98 in 10.0 mi WSW 6.9 mph 16.1 mph N/A   Clear
9:55 PM 57.2 °F 46.4 °F 67% 29.99 in 10.0 mi West 5.8 mph - N/A   Clear
10:15 PM 57.2 °F 46.4 °F 67% 29.99 in 10.0 mi West 9.2 mph - N/A   Clear
10:35 PM 57.2 °F 46.4 °F 67% 29.99 in 10.0 mi West 4.6 mph - N/A   Clear
10:55 PM 55.4 °F 44.6 °F 67% 30.00 in 10.0 mi WSW 6.9 mph - N/A   Clear
11:15 PM 55.4 °F 44.6 °F 67% 30.01 in 10.0 mi West 4.6 mph - N/A   Clear
11:35 PM 55.4 °F 44.6 °F 67% 30.02 in 10.0 mi West 4.6 mph - N/A   Clear
11:55 PM 55.4 °F 44.6 °F 67% 30.03 in 10.0 mi WSW 4.6 mph - N/A   Clear